Timestamp, Local Timestamp, ID, PM25, PM10, Co2, Temperature, Relative Humidity, Monitor ID, O3
2017-06-28T13:23:00Z,06/28/17 09:23,1670689,0.9606,0.1236,507,23.0,43.0,,
2017-06-28T13:24:00Z,06/28/17 09:24,1670690,0.7875,0.0848,479,23.0,43.0,,
2017-06-28T13:25:00Z,06/28/17 09:25,1670691,0.7522,0.0777,426,23.0,43.0,,
2017-06-28T13:25:00Z,06/28/17 09:25,1670692,0.6109,0.0742,392,23.0,43.0,,
2017-06-28T13:26:00Z,06/28/17 09:26,1670693,0.6463,0.0848,374,23.0,43.0,,
2017-06-28T13:27:00Z,06/28/17 09:27,1670694,0.5827,0.0459,379,23.0,43.0,,
2017-06-28T13:28:00Z,06/28/17 09:28,1670695,0.6074,0.0706,373,23.0,43.0,,
2017-06-28T13:29:00Z,06/28/17 09:29,1670696,0.5297,0.053,338,24.0,43.0,,
2017-06-28T13:30:00Z,06/28/17 09:30,1670697,0.6392,0.0883,373,24.0,42.0,,
2017-06-28T13:31:00Z,06/28/17 09:31,1670698,0.6074,0.0742,358,24.0,42.0,,
2017-06-28T13:32:00Z,06/28/17 09:32,1670699,0.5898,0.0883,359,24.0,42.0,,
2017-06-28T13:33:00Z,06/28/17 09:33,1670700,0.5509,0.06,363,24.0,42.0,,
2017-06-28T13:34:00Z,06/28/17 09:34,1670701,0.5509,0.0953,355,24.0,42.0,,
2017-06-28T13:35:00Z,06/28/17 09:35,1670702,0.5438,0.0671,361,24.0,42.0,,
2017-06-28T13:36:00Z,06/28/17 09:36,1670703,0.5015,0.053,364,25.0,42.0,,
2017-06-28T13:37:00Z,06/28/17 09:37,1670704,0.4202,0.0565,362,25.0,41.0,,
2017-06-28T13:38:00Z,06/28/17 09:38,1670705,0.5227,0.0671,340,25.0,41.0,,
2017-06-28T13:39:00Z,06/28/17 09:39,1670706,0.4909,0.0777,368,25.0,41.0,,
2017-06-28T13:40:00Z,06/28/17 09:40,1670707,0.5227,0.0848,346,25.0,40.0,,
2017-06-28T13:41:00Z,06/28/17 09:41,1670708,0.4909,0.06,359,25.0,40.0,,
2017-06-28T13:42:00Z,06/28/17 09:42,1670709,0.452,0.06,382,26.0,40.0,,
2017-06-28T13:43:00Z,06/28/17 09:43,1670710,0.4838,0.0636,353,26.0,40.0,,
2017-06-28T13:44:00Z,06/28/17 09:44,1670711,0.4803,0.0636,358,26.0,39.0,,
2017-06-28T13:46:00Z,06/28/17 09:46,1670712,0.4873,0.0777,350,27.0,39.0,,
2017-06-28T13:47:00Z,06/28/17 09:47,1670713,0.445,0.0742,337,27.0,38.0,,
2017-06-28T13:48:00Z,06/28/17 09:48,1670714,0.4061,0.0318,320,27.0,38.0,,
2017-06-28T13:49:00Z,06/28/17 09:49,1670715,0.4308,0.0671,331,28.0,38.0,,
2017-06-28T13:50:00Z,06/28/17 09:50,1670716,0.4626,0.06,353,28.0,38.0,,
2017-06-28T13:51:00Z,06/28/17 09:51,1670717,0.3991,0.053,305,28.0,37.0,,
2017-06-28T13:52:00Z,06/28/17 09:52,1670718,0.4485,0.0671,342,28.0,37.0,,
2017-06-28T13:53:00Z,06/28/17 09:53,1670719,0.4556,0.0636,313,28.0,37.0,,
2017-06-28T13:54:00Z,06/28/17 09:54,1670720,0.452,0.0671,323,28.0,37.0,,
2017-06-28T13:55:00Z,06/28/17 09:55,1670721,0.4344,0.06,319,28.0,36.0,,
2017-06-28T13:56:00Z,06/28/17 09:56,1670722,0.4308,0.0918,304,28.0,36.0,,
2017-06-28T13:57:00Z,06/28/17 09:57,1670723,0.445,0.06,311,29.0,36.0,,
2017-06-28T13:58:00Z,06/28/17 09:58,1670724,0.3567,0.0459,331,29.0,36.0,,
2017-06-28T13:59:00Z,06/28/17 09:59,1670725,0.3849,0.06,327,29.0,35.0,,
2017-06-28T14:00:00Z,06/28/17 10:00,1670726,0.3178,0.0424,324,29.0,35.0,,
2017-06-28T14:01:00Z,06/28/17 10:01,1670727,0.392,0.0742,331,29.0,35.0,,
2017-06-28T14:02:00Z,06/28/17 10:02,1670728,0.3637,0.0636,293,29.0,35.0,,
2017-06-28T14:03:00Z,06/28/17 10:03,1670729,0.3708,0.0636,312,29.0,35.0,,
2017-06-28T14:04:00Z,06/28/17 10:04,1670730,0.3531,0.0742,312,29.0,35.0,,
2017-06-28T14:05:00Z,06/28/17 10:05,1670731,0.3885,0.0636,302,29.0,35.0,,
2017-06-28T14:06:00Z,06/28/17 10:06,1670732,0.286,0.0777,296,29.0,35.0,,
2017-06-28T14:07:00Z,06/28/17 10:07,1670733,0.3072,0.0671,320,29.0,35.0,,
2017-06-28T14:08:00Z,06/28/17 10:08,1670734,0.3637,0.0636,302,29.0,35.0,,
2017-06-28T14:09:00Z,06/28/17 10:09,1670735,0.3567,0.0636,310,29.0,34.0,,
2017-06-28T14:11:00Z,06/28/17 10:11,1670736,0.3426,0.0706,303,29.0,35.0,,
2017-06-28T14:12:00Z,06/28/17 10:12,1670737,0.3461,0.053,318,29.0,34.0,,
2017-06-28T14:13:00Z,06/28/17 10:13,1670738,0.392,0.0918,314,29.0,34.0,,
2017-06-28T14:14:00Z,06/28/17 10:14,1670739,0.3496,0.0883,296,29.0,34.0,,
2017-06-28T14:15:00Z,06/28/17 10:15,1670740,0.3708,0.0848,310,29.0,34.0,,
2017-06-28T14:16:00Z,06/28/17 10:16,1670741,0.3496,0.0706,331,29.0,34.0,,
2017-06-28T14:17:00Z,06/28/17 10:17,1670742,0.339,0.06,312,29.0,35.0,,
2017-06-28T14:17:00Z,06/28/17 10:17,1670743,0.3531,0.0706,287,29.0,35.0,,
2017-06-28T14:18:00Z,06/28/17 10:18,1670744,0.3284,0.0671,304,29.0,35.0,,
2017-06-28T14:19:00Z,06/28/17 10:19,1670745,0.3461,0.0812,301,29.0,35.0,,
2017-06-28T14:20:00Z,06/28/17 10:20,1670746,0.3249,0.0812,299,29.0,35.0,,
2017-06-28T14:21:00Z,06/28/17 10:21,1670747,0.2966,0.0671,301,29.0,35.0,,
2017-06-28T14:22:00Z,06/28/17 10:22,1670748,0.3461,0.0777,303,30.0,34.0,,
2017-06-28T14:23:00Z,06/28/17 10:23,1670749,0.3355,0.0777,314,30.0,34.0,,
2017-06-28T14:25:00Z,06/28/17 10:25,1670750,0.3637,0.0812,317,30.0,34.0,,
2017-06-28T14:26:00Z,06/28/17 10:26,1670751,0.339,0.0742,311,30.0,34.0,,
2017-06-28T14:27:00Z,06/28/17 10:27,1670752,0.332,0.0565,325,30.0,34.0,,
2017-06-28T14:28:00Z,06/28/17 10:28,1670753,0.3637,0.0812,305,30.0,34.0,,
2017-06-28T14:29:00Z,06/28/17 10:29,1670754,0.3531,0.0848,297,30.0,34.0,,
2017-06-28T14:30:00Z,06/28/17 10:30,1670755,0.3602,0.0742,317,30.0,34.0,,
2017-06-28T14:31:00Z,06/28/17 10:31,1670756,0.3461,0.0812,282,30.0,34.0,,
2017-06-28T14:32:00Z,06/28/17 10:32,1670757,0.3108,0.0777,303,30.0,34.0,,
2017-06-28T14:33:00Z,06/28/17 10:33,1670758,0.3779,0.0812,297,30.0,34.0,,
2017-06-28T14:34:00Z,06/28/17 10:34,1670759,0.339,0.0812,340,30.0,34.0,,
2017-06-28T14:35:00Z,06/28/17 10:35,1670760,0.279,0.0812,311,30.0,34.0,,
2017-06-28T14:36:00Z,06/28/17 10:36,1670761,0.3567,0.0636,309,30.0,34.0,,
2017-06-28T14:37:00Z,06/28/17 10:37,1670762,0.3426,0.0742,313,30.0,34.0,,
2017-06-28T14:38:00Z,06/28/17 10:38,1670763,0.3214,0.0636,328,30.0,34.0,,
2017-06-28T14:39:00Z,06/28/17 10:39,1670764,0.3143,0.0742,325,30.0,34.0,,
2017-06-28T14:40:00Z,06/28/17 10:40,1670765,0.3814,0.0812,299,30.0,34.0,,
2017-06-28T14:41:00Z,06/28/17 10:41,1670766,0.3885,0.0918,299,30.0,34.0,,
2017-06-28T14:42:00Z,06/28/17 10:42,1670767,0.3461,0.0636,294,30.0,34.0,,
2017-06-28T14:43:00Z,06/28/17 10:43,1670768,0.339,0.0636,274,30.0,34.0,,
2017-06-28T14:44:00Z,06/28/17 10:44,1670769,0.339,0.0812,288,30.0,34.0,,
2017-06-28T14:45:00Z,06/28/17 10:45,1670770,0.3814,0.0777,319,30.0,34.0,,
2017-06-28T14:46:00Z,06/28/17 10:46,1670771,0.332,0.0494,296,30.0,33.0,,
2017-06-28T14:47:00Z,06/28/17 10:47,1670772,0.3637,0.0812,309,30.0,33.0,,
2017-06-28T14:48:00Z,06/28/17 10:48,1670773,0.4167,0.0848,336,30.0,33.0,,
2017-06-28T14:49:00Z,06/28/17 10:49,1670774,0.3496,0.06,297,30.0,33.0,,
2017-06-28T14:50:00Z,06/28/17 10:50,1670775,0.3355,0.0494,296,30.0,33.0,,
2017-06-28T14:51:00Z,06/28/17 10:51,1670776,0.2966,0.0565,292,30.0,33.0,,
2017-06-28T14:52:00Z,06/28/17 10:52,1670777,0.3637,0.1095,321,30.0,33.0,,
2017-06-28T14:53:00Z,06/28/17 10:53,1670778,0.3284,0.053,297,30.0,33.0,,
2017-06-28T14:54:00Z,06/28/17 10:54,1670779,0.3108,0.0883,313,30.0,33.0,,
2017-06-28T14:55:00Z,06/28/17 10:55,1670780,0.3284,0.0848,292,30.0,33.0,,
2017-06-28T14:56:00Z,06/28/17 10:56,1670781,0.3602,0.0918,309,31.0,33.0,,
2017-06-28T14:57:00Z,06/28/17 10:57,1670782,0.3779,0.0812,313,31.0,33.0,,
2017-06-28T14:58:00Z,06/28/17 10:58,1670783,0.3991,0.0812,302,31.0,33.0,,
2017-06-28T14:59:00Z,06/28/17 10:59,1670784,0.3708,0.0918,308,31.0,33.0,,
2017-06-28T15:00:00Z,06/28/17 11:00,1670785,0.3531,0.0742,306,31.0,33.0,,
2017-06-28T15:01:00Z,06/28/17 11:01,1670786,0.339,0.1095,331,31.0,32.0,,
2017-06-28T15:02:00Z,06/28/17 11:02,1670787,0.3461,0.0848,291,31.0,32.0,,
2017-06-28T15:03:00Z,06/28/17 11:03,1670788,0.3214,0.1024,287,31.0,32.0,,
2017-06-28T15:04:00Z,06/28/17 11:04,1670789,0.3779,0.0883,287,31.0,32.0,,
2017-06-28T15:05:00Z,06/28/17 11:05,1670790,0.3708,0.0671,297,31.0,32.0,,
2017-06-28T15:06:00Z,06/28/17 11:06,1670791,0.3885,0.1165,300,31.0,32.0,,
2017-06-28T15:07:00Z,06/28/17 11:07,1670792,0.3602,0.0883,298,31.0,32.0,,
2017-06-28T15:08:00Z,06/28/17 11:08,1670793,0.3955,0.1165,291,31.0,32.0,,
2017-06-28T15:09:00Z,06/28/17 11:09,1670794,0.3214,0.0777,287,31.0,33.0,,
2017-06-28T15:09:00Z,06/28/17 11:09,1670795,0.3284,0.0812,277,31.0,32.0,,
2017-06-28T15:10:00Z,06/28/17 11:10,1670796,0.3567,0.0848,291,31.0,32.0,,
2017-06-28T15:11:00Z,06/28/17 11:11,1670797,0.3814,0.113,304,31.0,32.0,,
2017-06-28T15:12:00Z,06/28/17 11:12,1670798,0.3072,0.0812,285,31.0,32.0,,
2017-06-28T15:13:00Z,06/28/17 11:13,1670799,0.3602,0.0883,312,31.0,33.0,,
2017-06-28T15:14:00Z,06/28/17 11:14,1670800,0.3531,0.0848,302,31.0,33.0,,
2017-06-28T15:15:00Z,06/28/17 11:15,1670801,0.3673,0.0848,281,31.0,33.0,,
2017-06-28T15:16:00Z,06/28/17 11:16,1670802,0.392,0.0883,297,31.0,32.0,,
2017-06-28T15:17:00Z,06/28/17 11:17,1670803,0.3991,0.1095,302,31.0,32.0,,
2017-06-28T15:18:00Z,06/28/17 11:18,1670804,0.3531,0.1095,289,31.0,33.0,,
2017-06-28T15:19:00Z,06/28/17 11:19,1670805,0.3426,0.0671,297,31.0,32.0,,
2017-06-28T15:20:00Z,06/28/17 11:20,1670806,0.3743,0.1095,309,30.0,32.0,,
2017-06-28T15:21:00Z,06/28/17 11:21,1670807,0.3708,0.0777,276,30.0,32.0,,
2017-06-28T15:22:00Z,06/28/17 11:22,1670808,0.4097,0.0883,307,30.0,32.0,,
2017-06-28T15:23:00Z,06/28/17 11:23,1670809,0.3708,0.0918,309,30.0,32.0,,
2017-06-28T15:24:00Z,06/28/17 11:24,1670810,0.4485,0.0953,294,30.0,32.0,,
2017-06-28T15:25:00Z,06/28/17 11:25,1670811,0.3814,0.0812,307,30.0,32.0,,
2017-06-28T15:26:00Z,06/28/17 11:26,1670812,0.4167,0.1059,294,30.0,32.0,,
2017-06-28T15:27:00Z,06/28/17 11:27,1670813,0.4308,0.1165,278,30.0,32.0,,
2017-06-28T15:28:00Z,06/28/17 11:28,1670814,0.4026,0.0989,273,30.0,32.0,,
2017-06-28T15:29:00Z,06/28/17 11:29,1670815,0.3849,0.1024,286,30.0,32.0,,
2017-06-28T15:30:00Z,06/28/17 11:30,1670816,0.4026,0.1165,319,30.0,32.0,,
2017-06-28T15:31:00Z,06/28/17 11:31,1670817,0.4026,0.1095,297,30.0,32.0,,
2017-06-28T15:32:00Z,06/28/17 11:32,1670818,0.4308,0.1377,311,30.0,32.0,,
2017-06-28T15:33:00Z,06/28/17 11:33,1670819,0.3955,0.113,286,30.0,32.0,,
2017-06-28T15:34:00Z,06/28/17 11:34,1670820,0.4238,0.0812,297,30.0,33.0,,
2017-06-28T15:35:00Z,06/28/17 11:35,1670821,0.445,0.1307,286,30.0,33.0,,
2017-06-28T15:36:00Z,06/28/17 11:36,1670822,0.3779,0.0989,286,30.0,33.0,,
2017-06-28T15:37:00Z,06/28/17 11:37,1670823,0.3673,0.0848,284,30.0,33.0,,
2017-06-28T15:38:00Z,06/28/17 11:38,1670824,0.3531,0.0989,296,30.0,33.0,,
2017-06-28T15:39:00Z,06/28/17 11:39,1670825,0.4308,0.1271,282,30.0,33.0,,
2017-06-28T15:40:00Z,06/28/17 11:40,1670826,0.4202,0.1271,305,30.0,33.0,,
2017-06-28T15:41:00Z,06/28/17 11:41,1670827,0.4485,0.1095,296,30.0,33.0,,
2017-06-28T15:42:00Z,06/28/17 11:42,1670828,0.4097,0.1059,282,30.0,33.0,,
2017-06-28T15:43:00Z,06/28/17 11:43,1670829,0.3602,0.0989,315,30.0,33.0,,
2017-06-28T15:44:00Z,06/28/17 11:44,1670830,0.3531,0.0777,297,30.0,33.0,,
2017-06-28T15:45:00Z,06/28/17 11:45,1670831,0.3461,0.0742,307,30.0,33.0,,
2017-06-28T15:46:00Z,06/28/17 11:46,1670832,0.3814,0.0989,297,30.0,33.0,,
2017-06-28T15:47:00Z,06/28/17 11:47,1670833,0.4132,0.1024,303,30.0,33.0,,
2017-06-28T15:48:00Z,06/28/17 11:48,1670834,0.392,0.1165,284,30.0,33.0,,
2017-06-28T15:49:00Z,06/28/17 11:49,1670835,0.3814,0.0883,325,30.0,33.0,,
2017-06-28T15:50:00Z,06/28/17 11:50,1670836,0.4061,0.113,271,30.0,34.0,,
2017-06-28T15:51:00Z,06/28/17 11:51,1670837,0.4238,0.1236,297,30.0,33.0,,
2017-06-28T15:52:00Z,06/28/17 11:52,1670838,0.3673,0.1095,290,30.0,33.0,,
2017-06-28T15:53:00Z,06/28/17 11:53,1670839,0.4485,0.1271,297,30.0,33.0,,
2017-06-28T15:54:00Z,06/28/17 11:54,1670840,0.4202,0.0989,288,30.0,33.0,,
2017-06-28T15:55:00Z,06/28/17 11:55,1670841,0.4132,0.1307,299,30.0,33.0,,
2017-06-28T15:56:00Z,06/28/17 11:56,1670842,0.4273,0.1271,296,30.0,33.0,,
2017-06-28T15:57:00Z,06/28/17 11:57,1670843,0.392,0.1271,286,30.0,33.0,,
2017-06-28T15:58:00Z,06/28/17 11:58,1670844,0.3779,0.0636,319,30.0,33.0,,
2017-06-28T15:59:00Z,06/28/17 11:59,1670845,0.445,0.1024,323,30.0,33.0,,
2017-06-28T16:00:00Z,06/28/17 12:00,1670846,0.4767,0.1024,296,30.0,33.0,,
2017-06-28T16:01:00Z,06/28/17 12:01,1670847,0.4132,0.1024,286,30.0,33.0,,
2017-06-28T16:01:00Z,06/28/17 12:01,1670848,0.3673,0.0918,303,31.0,33.0,,
2017-06-28T16:02:00Z,06/28/17 12:02,1670849,0.4167,0.1165,279,31.0,33.0,,
2017-06-28T16:03:00Z,06/28/17 12:03,1670850,0.3849,0.1165,275,31.0,33.0,,
2017-06-28T16:04:00Z,06/28/17 12:04,1670851,0.4838,0.1236,277,31.0,33.0,,
2017-06-28T16:05:00Z,06/28/17 12:05,1670852,0.4379,0.113,312,31.0,33.0,,
2017-06-28T16:06:00Z,06/28/17 12:06,1670853,0.4979,0.1519,285,31.0,33.0,,
2017-06-28T16:07:00Z,06/28/17 12:07,1670854,0.4591,0.1483,314,31.0,33.0,,
2017-06-28T16:08:00Z,06/28/17 12:08,1670855,0.4697,0.1413,314,31.0,32.0,,
2017-06-28T16:09:00Z,06/28/17 12:09,1670856,0.4485,0.1271,306,31.0,33.0,,
2017-06-28T16:10:00Z,06/28/17 12:10,1670857,0.452,0.1024,289,31.0,32.0,,
2017-06-28T16:11:00Z,06/28/17 12:11,1670858,0.4061,0.113,306,31.0,32.0,,
2017-06-28T16:12:00Z,06/28/17 12:12,1670859,0.4132,0.0918,318,31.0,33.0,,
2017-06-28T16:13:00Z,06/28/17 12:13,1670860,0.4591,0.1165,289,31.0,32.0,,
2017-06-28T16:14:00Z,06/28/17 12:14,1670861,0.4379,0.0989,285,31.0,32.0,,
2017-06-28T16:15:00Z,06/28/17 12:15,1670862,0.4944,0.1024,298,32.0,32.0,,
2017-06-28T16:16:00Z,06/28/17 12:16,1670863,0.4767,0.1236,289,32.0,32.0,,
2017-06-28T16:17:00Z,06/28/17 12:17,1670864,0.4909,0.166,274,32.0,32.0,,
2017-06-28T16:18:00Z,06/28/17 12:18,1670865,0.4697,0.1165,297,32.0,32.0,,
2017-06-28T16:19:00Z,06/28/17 12:19,1670866,0.4838,0.1165,301,32.0,32.0,,
2017-06-28T16:20:00Z,06/28/17 12:20,1670867,0.5156,0.1271,278,32.0,32.0,,
2017-06-28T16:21:00Z,06/28/17 12:21,1670868,0.4591,0.1059,299,32.0,32.0,,
2017-06-28T16:22:00Z,06/28/17 12:22,1670869,0.4167,0.0848,292,32.0,32.0,,
2017-06-28T16:23:00Z,06/28/17 12:23,1670870,0.4944,0.1024,290,32.0,32.0,,
2017-06-28T16:24:00Z,06/28/17 12:24,1670871,0.392,0.0989,290,32.0,31.0,,
2017-06-28T16:25:00Z,06/28/17 12:25,1670872,0.4591,0.1165,272,32.0,31.0,,
2017-06-28T16:26:00Z,06/28/17 12:26,1670873,0.4591,0.1271,252,32.0,31.0,,
2017-06-28T16:27:00Z,06/28/17 12:27,1670874,0.4308,0.1165,290,32.0,31.0,,
2017-06-28T16:28:00Z,06/28/17 12:28,1670875,0.3814,0.1271,272,32.0,31.0,,
2017-06-28T16:29:00Z,06/28/17 12:29,1670876,0.4238,0.1024,242,32.0,31.0,,
2017-06-28T16:30:00Z,06/28/17 12:30,1670877,0.3991,0.1024,301,32.0,31.0,,
2017-06-28T16:31:00Z,06/28/17 12:31,1670878,0.452,0.1448,278,32.0,31.0,,
2017-06-28T16:32:00Z,06/28/17 12:32,1670879,0.4238,0.1165,250,32.0,31.0,,
2017-06-28T16:33:00Z,06/28/17 12:33,1670880,0.4132,0.0989,286,32.0,31.0,,
2017-06-28T16:34:00Z,06/28/17 12:34,1670881,0.4414,0.1165,298,32.0,32.0,,
2017-06-28T16:35:00Z,06/28/17 12:35,1670882,0.4097,0.1201,294,32.0,31.0,,
2017-06-28T16:36:00Z,06/28/17 12:36,1670883,0.4697,0.1342,284,32.0,32.0,,
2017-06-28T16:37:00Z,06/28/17 12:37,1670884,0.3779,0.1024,301,31.0,32.0,,
2017-06-28T16:38:00Z,06/28/17 12:38,1670885,0.3673,0.1024,304,31.0,32.0,,
2017-06-28T16:39:00Z,06/28/17 12:39,1670886,0.4379,0.1236,277,31.0,32.0,,
2017-06-28T16:40:00Z,06/28/17 12:40,1670887,0.4626,0.1377,281,31.0,32.0,,
2017-06-28T16:41:00Z,06/28/17 12:41,1670888,0.445,0.0953,306,31.0,32.0,,
2017-06-28T16:42:00Z,06/28/17 12:42,1670889,0.4485,0.1236,293,31.0,32.0,,
2017-06-28T16:43:00Z,06/28/17 12:43,1670890,0.445,0.1236,297,31.0,32.0,,
2017-06-28T16:44:00Z,06/28/17 12:44,1670891,0.4414,0.113,272,31.0,32.0,,
2017-06-28T16:45:00Z,06/28/17 12:45,1670892,0.4626,0.1342,270,31.0,32.0,,
2017-06-28T16:46:00Z,06/28/17 12:46,1670893,0.4591,0.1377,283,31.0,33.0,,
2017-06-28T16:47:00Z,06/28/17 12:47,1670894,0.4485,0.1236,306,31.0,33.0,,
2017-06-28T16:48:00Z,06/28/17 12:48,1670895,0.4273,0.1024,287,31.0,33.0,,
2017-06-28T16:49:00Z,06/28/17 12:49,1670896,0.4238,0.1201,268,31.0,33.0,,
2017-06-28T16:50:00Z,06/28/17 12:50,1670897,0.3779,0.0671,283,31.0,33.0,,
2017-06-28T16:51:00Z,06/28/17 12:51,1670898,0.392,0.0883,302,31.0,33.0,,
2017-06-28T16:52:00Z,06/28/17 12:52,1670899,0.4626,0.0989,293,31.0,32.0,,
2017-06-28T16:53:00Z,06/28/17 12:53,1670900,0.4485,0.1307,281,31.0,32.0,,
2017-06-28T16:54:00Z,06/28/17 12:54,1670901,0.4061,0.1201,293,31.0,32.0,,
2017-06-28T16:54:00Z,06/28/17 12:54,1670902,0.4202,0.1165,312,31.0,32.0,,
2017-06-28T16:55:00Z,06/28/17 12:55,1670903,0.4909,0.1236,275,31.0,32.0,,
2017-06-28T16:57:00Z,06/28/17 12:57,1670904,0.4273,0.0918,300,31.0,32.0,,
2017-06-28T16:58:00Z,06/28/17 12:58,1670905,0.4485,0.1059,287,31.0,32.0,,
2017-06-28T16:59:00Z,06/28/17 12:59,1670906,0.4308,0.1236,308,31.0,32.0,,
2017-06-28T17:00:00Z,06/28/17 13:00,1670907,0.3849,0.1165,300,31.0,32.0,,
2017-06-28T17:01:00Z,06/28/17 13:01,1670908,0.452,0.1307,279,31.0,32.0,,
2017-06-28T17:02:00Z,06/28/17 13:02,1670909,0.3955,0.1059,302,31.0,32.0,,
2017-06-28T17:03:00Z,06/28/17 13:03,1670910,0.4414,0.1024,275,31.0,32.0,,
2017-06-28T17:04:00Z,06/28/17 13:04,1670911,0.4414,0.1024,293,31.0,33.0,,
2017-06-28T17:05:00Z,06/28/17 13:05,1670912,0.4273,0.1307,293,31.0,33.0,,
2017-06-28T17:06:00Z,06/28/17 13:06,1670913,0.4167,0.1236,306,31.0,33.0,,
2017-06-28T17:07:00Z,06/28/17 13:07,1670914,0.4308,0.1271,277,31.0,33.0,,
2017-06-28T17:08:00Z,06/28/17 13:08,1670915,0.4202,0.113,297,31.0,33.0,,
2017-06-28T17:09:00Z,06/28/17 13:09,1670916,0.4344,0.113,297,30.0,33.0,,
2017-06-28T17:10:00Z,06/28/17 13:10,1670917,0.4556,0.0989,310,30.0,33.0,,
2017-06-28T17:11:00Z,06/28/17 13:11,1670918,0.4061,0.0989,292,30.0,33.0,,
2017-06-28T17:12:00Z,06/28/17 13:12,1670919,0.4167,0.0953,282,30.0,33.0,,
2017-06-28T17:13:00Z,06/28/17 13:13,1670920,0.392,0.113,309,30.0,33.0,,
2017-06-28T17:14:00Z,06/28/17 13:14,1670921,0.4097,0.1271,296,30.0,33.0,,
2017-06-28T17:15:00Z,06/28/17 13:15,1670922,0.505,0.113,296,30.0,33.0,,
2017-06-28T17:16:00Z,06/28/17 13:16,1670923,0.4485,0.1483,311,30.0,33.0,,
2017-06-28T17:17:00Z,06/28/17 13:17,1670924,0.4485,0.1236,267,30.0,33.0,,
2017-06-28T17:18:00Z,06/28/17 13:18,1670925,0.445,0.1095,276,30.0,33.0,,
2017-06-28T17:19:00Z,06/28/17 13:19,1670926,0.4732,0.1236,284,30.0,34.0,,
2017-06-28T17:20:00Z,06/28/17 13:20,1670927,0.4308,0.1059,303,30.0,34.0,,
2017-06-28T17:21:00Z,06/28/17 13:21,1670928,0.4591,0.1165,299,30.0,34.0,,
2017-06-28T17:22:00Z,06/28/17 13:22,1670929,0.4485,0.1483,292,30.0,34.0,,
2017-06-28T17:23:00Z,06/28/17 13:23,1670930,0.4414,0.113,315,30.0,34.0,,
2017-06-28T17:24:00Z,06/28/17 13:24,1670931,0.4556,0.1236,290,29.0,34.0,,
2017-06-28T17:25:00Z,06/28/17 13:25,1670932,0.4485,0.1236,290,29.0,34.0,,
2017-06-28T17:26:00Z,06/28/17 13:26,1670933,0.4803,0.1271,299,29.0,35.0,,
2017-06-28T17:27:00Z,06/28/17 13:27,1670934,0.452,0.1165,305,29.0,35.0,,
2017-06-28T17:28:00Z,06/28/17 13:28,1670935,0.5403,0.1271,307,29.0,35.0,,
2017-06-28T17:29:00Z,06/28/17 13:29,1670936,0.505,0.1165,309,29.0,35.0,,
2017-06-28T17:30:00Z,06/28/17 13:30,1670937,0.445,0.1342,312,29.0,35.0,,
2017-06-28T17:31:00Z,06/28/17 13:31,1670938,0.4767,0.113,293,29.0,35.0,,
2017-06-28T17:32:00Z,06/28/17 13:32,1670939,0.4167,0.1165,275,29.0,35.0,,
2017-06-28T17:33:00Z,06/28/17 13:33,1670940,0.4873,0.1519,291,29.0,35.0,,
2017-06-28T17:34:00Z,06/28/17 13:34,1670941,0.4414,0.1307,293,29.0,35.0,,
2017-06-28T17:35:00Z,06/28/17 13:35,1670942,0.4767,0.1589,316,29.0,35.0,,
2017-06-28T17:36:00Z,06/28/17 13:36,1670943,0.4238,0.1201,289,29.0,35.0,,
2017-06-28T17:37:00Z,06/28/17 13:37,1670944,0.5085,0.1271,291,29.0,35.0,,
2017-06-28T17:38:00Z,06/28/17 13:38,1670945,0.4838,0.1589,306,29.0,35.0,,
2017-06-28T17:39:00Z,06/28/17 13:39,1670946,0.4662,0.1095,281,29.0,35.0,,
2017-06-28T17:40:00Z,06/28/17 13:40,1670947,0.445,0.1165,296,29.0,35.0,,
2017-06-28T17:41:00Z,06/28/17 13:41,1670948,0.4767,0.0777,295,29.0,35.0,,
2017-06-28T17:42:00Z,06/28/17 13:42,1670949,0.5085,0.1483,322,29.0,35.0,,
2017-06-28T17:43:00Z,06/28/17 13:43,1670950,0.4803,0.1236,285,29.0,35.0,,
2017-06-28T17:44:00Z,06/28/17 13:44,1670951,0.452,0.1236,302,29.0,35.0,,
2017-06-28T17:45:00Z,06/28/17 13:45,1670952,0.4485,0.0883,285,29.0,35.0,,
2017-06-28T17:46:00Z,06/28/17 13:46,1670953,0.4909,0.1307,270,29.0,35.0,,
2017-06-28T17:46:00Z,06/28/17 13:46,1670954,0.5015,0.1271,312,29.0,35.0,,
2017-06-28T17:47:00Z,06/28/17 13:47,1670955,0.4697,0.1307,314,29.0,36.0,,
2017-06-28T17:48:00Z,06/28/17 13:48,1670956,0.4732,0.1377,287,29.0,35.0,,
2017-06-28T17:49:00Z,06/28/17 13:49,1670957,0.5191,0.1695,296,29.0,36.0,,
2017-06-28T17:50:00Z,06/28/17 13:50,1670958,0.4838,0.113,314,29.0,36.0,,
2017-06-28T17:51:00Z,06/28/17 13:51,1670959,0.4767,0.1236,296,29.0,36.0,,
2017-06-28T17:52:00Z,06/28/17 13:52,1670960,0.4485,0.0918,318,29.0,36.0,,
2017-06-28T17:53:00Z,06/28/17 13:53,1670961,0.452,0.1024,312,29.0,36.0,,
2017-06-28T17:54:00Z,06/28/17 13:54,1670962,0.5333,0.1448,310,29.0,36.0,,
2017-06-28T17:55:00Z,06/28/17 13:55,1670963,0.5474,0.1024,291,29.0,36.0,,
2017-06-28T17:56:00Z,06/28/17 13:56,1670964,0.5227,0.1448,293,29.0,36.0,,
2017-06-28T17:57:00Z,06/28/17 13:57,1670965,0.505,0.1413,296,29.0,36.0,,
2017-06-28T17:58:00Z,06/28/17 13:58,1670966,0.4909,0.1271,312,29.0,36.0,,
2017-06-28T17:59:00Z,06/28/17 13:59,1670967,0.4697,0.1024,306,29.0,36.0,,
2017-06-28T18:00:00Z,06/28/17 14:00,1670968,0.4979,0.1448,308,29.0,36.0,,
2017-06-28T18:01:00Z,06/28/17 14:01,1670969,0.4732,0.1307,306,29.0,36.0,,
2017-06-28T18:02:00Z,06/28/17 14:02,1670970,0.565,0.1483,314,29.0,36.0,,
2017-06-28T18:03:00Z,06/28/17 14:03,1670971,0.4662,0.1589,291,28.0,36.0,,
2017-06-28T18:04:00Z,06/28/17 14:04,1670972,0.5191,0.1413,312,28.0,36.0,,
2017-06-28T18:05:00Z,06/28/17 14:05,1670973,0.4662,0.1165,324,28.0,36.0,,
2017-06-28T18:06:00Z,06/28/17 14:06,1670974,0.505,0.1413,302,28.0,36.0,,
2017-06-28T18:07:00Z,06/28/17 14:07,1670975,0.5262,0.1377,302,28.0,37.0,,
2017-06-28T18:08:00Z,06/28/17 14:08,1670976,0.4732,0.1624,304,28.0,38.0,,
2017-06-28T18:09:00Z,06/28/17 14:09,1670977,0.5085,0.1624,300,28.0,39.0,,
2017-06-28T18:10:00Z,06/28/17 14:10,1670978,0.5156,0.1413,308,28.0,40.0,,
2017-06-28T18:11:00Z,06/28/17 14:11,1670979,0.5015,0.1413,330,28.0,41.0,,
2017-06-28T18:12:00Z,06/28/17 14:12,1670980,0.5262,0.1307,294,28.0,42.0,,
2017-06-28T18:13:00Z,06/28/17 14:13,1670981,0.5227,0.1165,292,27.0,42.0,,
2017-06-28T18:14:00Z,06/28/17 14:14,1670982,0.505,0.1095,336,27.0,43.0,,
2017-06-28T18:15:00Z,06/28/17 14:15,1670983,0.4979,0.1413,314,27.0,43.0,,
2017-06-28T18:16:00Z,06/28/17 14:16,1670984,0.5297,0.1377,329,27.0,44.0,,
2017-06-28T18:17:00Z,06/28/17 14:17,1670985,0.565,0.1236,318,26.0,45.0,,
2017-06-28T18:18:00Z,06/28/17 14:18,1670986,0.6463,0.1589,351,26.0,45.0,,
2017-06-28T18:19:00Z,06/28/17 14:19,1670987,0.6639,0.1589,325,26.0,46.0,,
2017-06-28T18:20:00Z,06/28/17 14:20,1670988,0.6357,0.1377,325,26.0,46.0,,
2017-06-28T18:21:00Z,06/28/17 14:21,1670989,0.6745,0.1448,315,26.0,46.0,,
2017-06-28T18:22:00Z,06/28/17 14:22,1670990,0.6533,0.173,317,25.0,47.0,,
2017-06-28T18:23:00Z,06/28/17 14:23,1670991,0.6357,0.1413,324,25.0,48.0,,
2017-06-28T18:24:00Z,06/28/17 14:24,1670992,0.6851,0.1872,315,25.0,48.0,,
2017-06-28T18:25:00Z,06/28/17 14:25,1670993,0.6569,0.1519,329,25.0,49.0,,
2017-06-28T18:26:00Z,06/28/17 14:26,1670994,0.6286,0.1413,329,25.0,50.0,,
2017-06-28T18:27:00Z,06/28/17 14:27,1670995,0.6251,0.0989,356,25.0,50.0,,
2017-06-28T18:28:00Z,06/28/17 14:28,1670996,0.7098,0.1519,334,25.0,50.0,,
2017-06-28T18:29:00Z,06/28/17 14:29,1670997,0.6357,0.1483,344,24.0,50.0,,
